sat.trackr.live / text

‹ back to catalog

TIANMU-1 17

NORAD 58702 · 2024-004C

PAYLOAD ACTIVE UNKNOWN

§ Identity

Operator
Country
PRC
Launch date
2024-01-05
Launch site
JSC
Launch vehicle
Mass (kg)
RCS (m²)

Purposes: earth_obs

External: N2YO · Heavens-Above · Gunter

§ Orbital elements

Epoch: 2026-09-19T22:47:13.191072Z

Period
94.27 min
Inclination
97.4651°
Eccentricity
0.0006190
Mean motion
15.27586524 rev/d
Perigee alt
478.8 km
Apogee alt
487.3 km
Semi-major
6,861.2 km
B*
1.3393e-4
RAAN
88.8850°
Arg perigee
36.4517°
Mean anomaly
323.7142°
Rev number
15,023

§ Raw data

TIANMU-1 171 58702U 24004C   26262.94945823  .00003538  00000+0  13393-3 0  99942 58702  97.4651  88.8850 0006190  36.4517 323.7142 15.27586524150233

JSON: /api/v1/satellites/58702 · /tle

For live sub-satellite position, see the globe view (requires WebGL).

§ Visibility from observer

Set your observer location to see the next 7 days of passes ≥ 10°. The values pass through the URL so the page stays shareable.

No JS? Fill the form by hand. The geolocation button needs JavaScript.